User: anonymous   Login
Location: Songkhla
(7.2000°N, 100.6000°E)
Time: 07:55:18
(UTC+07:00)
Language:

KKS-1 - Orbit

View from above orbital plane
View from above orbital plane
View from above satellite
View from above satellite

Ground track
Ground track

The orbit data is extracted from the following two-line orbital elements,

1 33499U 09002H   21216.54632198  .00000107  00000-0  23590-4 0  9990
2 33499  98.2624  87.5722 0007806 244.6680 115.3721 14.75681480673508
Epoch (UTC): 04 August 2021 13:06:42
Eccentricity: 0.0007806
inclination: 98.2624°
perigee height: 637 km
apogee height: 648 km
right ascension of ascending node: 87.5722°
argument of perigee: 244.6680°
revolutions per day: 14.75681480
mean anomaly at epoch: 115.3721°
orbit number at epoch: 67350

The dashed part of the orbit path shows where the satellite is in the earth's shadow,  

DLR